Weather History for KBED - March, 2013

Change the Weather History Date:

Sunday, March 10, 2013

  Actual Average (KBOS) Record (KBOS)
Temperature  
Mean Temperature 29 °F 37 °F  
Max Temperature 41 °F 44 °F 71 °F (1878)
Min Temperature 17 °F 29 °F 6 °F (1984)
Degree Days  
Heating Degree Days 36 28  
Month to date heating degree days 295  
Since 1 July heating degree days 4337  
Cooling Degree Days 0 0  
Month to date cooling degree days 0  
Year to date cooling degree days 0  
Moisture  
Dew Point 25 °F    
Average Humidity 83    
Maximum Humidity 100    
Minimum Humidity 60    
Precipitation  
Precipitation 0.00 in 0.14 in 2.14 in (1881)
Month to date precipitation 1.33  
Year to date precipitation 7.94  
Sea Level Pressure  
Sea Level Pressure 30.39 in    
Wind  
Wind Speed 2 mph (SE)    
Max Wind Speed 9 mph    
Max Gust Speed -    
Visibility 9 miles    
Events      
T = Trace of Precipitation, MM = Missing Value Source: NWS Daily Summary

Daily Weather History Graph

Daily Weather History Graph

Search for Another Location

Airport or City:

Trip Planner

Search our weather history database for the weather conditions in past years. The results will help you decide how hot, cold, wet, or windy it might be!

Date:

Astronomy

Mar. 10, 2013 Rise Set
Actual Time 7:05 AM EDT 6:46 PM EDT
Civil Twilight 6:37 AM EDT 7:14 PM EDT
Nautical Twilight 6:04 AM EDT 7:46 PM EDT
Astronomical Twilight 5:31 AM EDT 8:19 PM EDT
Moon 6:04 AM EDT (3/10) 5:50 PM EDT (3/10)
Length of Visible Light 12h 36m
Length of Day
11h 40m
Waning Crescent, 2% of the Moon is Illuminated
Mar 10
Waning Crescent
Mar 11
New
Mar 19
First Quarter
Mar 27
Full
Apr 3
Last Quarter

Hourly Weather History & Observations

Time (EDT) Temp. Windchill Dew Point Humidity Pressure Visibility Wind Dir Wind Speed Gust Speed Precip Events Conditions
12:00 AM 23.0 °F - 21.2 °F 93% 30.35 in 3.0 mi Calm Calm - N/A   Partly Cloudy
12:56 AM 21.0 °F - 19.0 °F 92% 30.41 in 9.0 mi Calm Calm - N/A   Clear
1:54 AM 21.2 °F - 19.4 °F 93% 30.36 in 1.8 mi Calm Calm - N/A   Clear
1:56 AM 19.9 °F - 18.0 °F 92% 30.41 in 1.5 mi Calm Calm - N/A   Clear
3:03 AM 19.4 °F - 17.6 °F 93% 30.36 in 4.0 mi Calm Calm - N/A   Clear
3:56 AM 19.9 °F - 17.1 °F 89% 30.40 in 9.0 mi Calm Calm - N/A   Clear
4:56 AM 19.9 °F - 17.1 °F 89% 30.42 in 5.0 mi Calm Calm - N/A   Partly Cloudy
5:56 AM 19.0 °F - 17.1 °F 92% 30.42 in 10.0 mi Calm Calm - N/A   Clear
6:56 AM 17.1 °F - 15.1 °F 92% 30.42 in 6.0 mi Calm Calm - N/A   Scattered Clouds
7:56 AM 19.4 °F - 17.6 °F 93% 30.39 in 10.0 mi Calm Calm - N/A   Scattered Clouds
8:56 AM 23.0 °F - 23.0 °F 100% 30.45 in 10.0 mi Calm Calm - N/A   Partly Cloudy
9:08 AM 24.8 °F - 24.8 °F 100% 30.40 in 10.0 mi Calm Calm - N/A   Mostly Cloudy
9:56 AM 30.0 °F - 28.9 °F 96% 30.46 in 10.0 mi Calm Calm - N/A   Mostly Cloudy
10:56 AM 34.0 °F - 30.0 °F 85% 30.45 in 10.0 mi Calm Calm - N/A   Mostly Cloudy
11:56 AM 36.0 °F 32.1 °F 28.0 °F 73% 30.44 in 10.0 mi ESE 4.6 mph - N/A   Mostly Cloudy
12:40 PM 37.4 °F 32.8 °F 28.4 °F 70% 30.38 in 10.0 mi East 5.8 mph - N/A   Scattered Clouds
12:56 PM 37.9 °F 32.7 °F 28.0 °F 68% 30.43 in 10.0 mi East 6.9 mph - N/A   Scattered Clouds
1:56 PM 41.0 °F 38.0 °F 28.9 °F 62% 30.41 in 10.0 mi Variable 4.6 mph - N/A   Clear
2:56 PM 41.0 °F 38.0 °F 28.0 °F 60% 30.39 in 10.0 mi ENE 4.6 mph - N/A   Clear
3:56 PM 39.9 °F 36.7 °F 28.0 °F 63% 30.38 in 10.0 mi East 4.6 mph - N/A   Clear
4:56 PM 39.9 °F 35.8 °F 28.0 °F 63% 30.38 in 10.0 mi SE 5.8 mph - N/A   Clear
5:56 PM 39.0 °F 34.8 °F 28.0 °F 65% 30.38 in 10.0 mi ESE 5.8 mph - N/A   Partly Cloudy
6:56 PM 36.0 °F 29.0 °F 28.9 °F 76% 30.38 in 10.0 mi ESE 9.2 mph - N/A   Clear
7:56 PM 35.1 °F 30.1 °F 28.9 °F 78% 30.38 in 10.0 mi ESE 5.8 mph - N/A   Clear
8:56 PM 34.0 °F 28.8 °F 28.9 °F 82% 30.38 in 10.0 mi SE 5.8 mph - N/A   Clear
9:56 PM 35.1 °F 29.3 °F 28.9 °F 78% 30.36 in 10.0 mi SE 6.9 mph - N/A   Clear
10:56 PM 34.0 °F 28.8 °F 28.9 °F 82% 30.37 in 10.0 mi SSW 5.8 mph - N/A   Clear
11:56 PM 34.0 °F 29.8 °F 30.0 °F 85% 30.35 in 10.0 mi SSE 4.6 mph - N/A   Clear
12:39 AM 33.8 °F 29.6 °F 30.2 °F 87% 30.30 in 10.0 mi South 4.6 mph - N/A   Mostly Cloudy
12:56 AM 34.0 °F 28.8 °F 30.0 °F 85% 30.35 in 10.0 mi SSE 5.8 mph - N/A   Mostly Cloudy